Precipitable_Water
0.77 0.80 0.83 0.91 0.95 0.99 1.05 1.11 1.14 1.15 1.17 1.20 1.21 1.20 1.14 1.05 0.96 0.94 0.91 0.91 0.92 0.96 1.03 1.07 1.07 1.10 1.09 1.09 1.11 1.17 1.19 1.16 1.15 1.12 1.11 1.11 1.11 1.12 1.11 1.12 1.12 1.13 1.16 1.16 1.19 1.18 1.23 1.27 1.32 1.39 1.45 1.47 1.47 1.51 1.50 1.50 1.52 1.57 1.61 1.63 1.62 1.62 1.60
0.76 0.77 0.80 0.86 0.89 0.92 0.99 1.08 1.15 1.17 1.19 1.21 1.21 1.23 1.22 1.14 1.06 0.97 0.90 0.89 0.88 0.89 0.96 1.01 1.04 1.05 1.06 1.06 1.09 1.13 1.16 1.18 1.17 1.17 1.16 1.16 1.16 1.14 1.16 1.16 1.14 1.14 1.14 1.17 1.23 1.26 1.26 1.29 1.28 1.32 1.38 1.44 1.45 1.50 1.51 1.48 1.50 1.52 1.56 1.58 1.56 1.57 1.57
0.76 0.76 0.79 0.83 0.85 0.87 0.92 1.02 1.10 1.13 1.14 1.18 1.22 1.23 1.22 1.20 1.14 1.02 0.96 0.90 0.87 0.89 0.95 0.97 0.99 1.02 1.03 1.04 1.06 1.10 1.15 1.18 1.18 1.17 1.12 1.13 1.13 1.12 1.18 1.20 1.20 1.19 1.20 1.22 1.22 1.25 1.29 1.29 1.29 1.29 1.33 1.38 1.44 1.49 1.52 1.51 1.50 1.50 1.56 1.58 1.55 1.53 1.53
0.76 0.76 0.79 0.82 0.84 0.88 0.92 0.93 0.98 1.07 1.13 1.14 1.16 1.18 1.22 1.25 1.25 1.17 1.06 0.97 0.89 0.87 0.87 0.91 0.97 1.00 1.03 1.04 1.08 1.11 1.15 1.18 1.23 1.21 1.20 1.25 1.22 1.22 1.21 1.22 1.23 1.25 1.24 1.22 1.24 1.26 1.29 1.30 1.29 1.28 1.28 1.33 1.40 1.48 1.53 1.51 1.52 1.50 1.53 1.58 1.54 1.51 1.50
0.73 0.76 0.81 0.85 0.88 0.90 0.90 0.89 0.89 0.93 1.00 1.08 1.12 1.19 1.23 1.27 1.30 1.27 1.18 1.06 0.98 0.87 0.84 0.87 0.93 0.98 1.03 1.06 1.08 1.11 1.15 1.18 1.20 1.25 1.29 1.32 1.29 1.29 1.25 1.22 1.24 1.23 1.25 1.29 1.31 1.29 1.27 1.29 1.29 1.26 1.24 1.26 1.35 1.44 1.48 1.50 1.51 1.53 1.51 1.54 1.51 1.48 1.46
0.70 0.73 0.76 0.80 0.84 0.85 0.85 0.86 0.87 0.87 0.90 0.99 1.09 1.15 1.21 1.26 1.29 1.26 1.23 1.16 1.06 1.02 0.98 0.97 0.97 0.99 0.99 1.04 1.07 1.10 1.17 1.21 1.23 1.27 1.34 1.35 1.29 1.28 1.26 1.26 1.27 1.27 1.27 1.27 1.34 1.33 1.32 1.29 1.27 1.28 1.24 1.24 1.27 1.36 1.45 1.45 1.44 1.51 1.51 1.51 1.51 1.48 1.41
0.69 0.72 0.72 0.75 0.79 0.81 0.85 0.86 0.89 0.94 0.96 1.01 1.12 1.21 1.25 1.26 1.25 1.26 1.29 1.24 1.16 1.07 1.06 1.02 1.00 1.03 1.03 1.06 1.10 1.13 1.14 1.18 1.22 1.25 1.30 1.33 1.30 1.28 1.30 1.31 1.31 1.31 1.32 1.35 1.33 1.35 1.34 1.30 1.27 1.27 1.27 1.24 1.24 1.28 1.37 1.41 1.40 1.46 1.50 1.47 1.47 1.49 1.45
0.64 0.72 0.72 0.73 0.75 0.78 0.82 0.87 0.92 0.96 1.00 1.02 1.06 1.13 1.17 1.20 1.23 1.26 1.27 1.26 1.24 1.18 1.11 1.08 1.08 1.11 1.14 1.15 1.15 1.16 1.18 1.19 1.24 1.26 1.30 1.29 1.28 1.27 1.29 1.30 1.31 1.32 1.34 1.32 1.34 1.37 1.35 1.34 1.33 1.29 1.28 1.25 1.25 1.25 1.31 1.37 1.38 1.42 1.47 1.42 1.42 1.45 1.48
0.66 0.75 0.78 0.78 0.80 0.83 0.89 0.95 0.95 0.95 0.95 0.95 0.95 0.99 1.08 1.16 1.19 1.20 1.23 1.27 1.29 1.24 1.15 1.11 1.14 1.19 1.26 1.27 1.25 1.25 1.27 1.27 1.27 1.27 1.27 1.26 1.26 1.24 1.25 1.28 1.30 1.33 1.30 1.30 1.32 1.37 1.36 1.36 1.35 1.32 1.29 1.27 1.26 1.26 1.27 1.33 1.35 1.40 1.45 1.40 1.39 1.42 1.45
0.62 0.71 0.72 0.74 0.77 0.79 0.85 0.92 0.97 0.95 0.91 0.92 0.94 0.96 1.03 1.09 1.14 1.19 1.22 1.23 1.27 1.27 1.25 1.21 1.21 1.27 1.34 1.36 1.35 1.37 1.37 1.36 1.34 1.32 1.28 1.22 1.21 1.20 1.23 1.26 1.28 1.30 1.29 1.30 1.33 1.35 1.38 1.39 1.38 1.36 1.32 1.28 1.27 1.27 1.27 1.30 1.33 1.35 1.40 1.42 1.40 1.41 1.45
0.51 0.54 0.62 0.68 0.72 0.75 0.77 0.80 0.82 0.83 0.86 0.89 0.92 0.94 0.97 1.03 1.09 1.14 1.19 1.23 1.22 1.24 1.31 1.32 1.29 1.26 1.33 1.39 1.40 1.45 1.47 1.46 1.47 1.42 1.39 1.32 1.27 1.24 1.25 1.27 1.28 1.30 1.27 1.27 1.28 1.33 1.37 1.37 1.40 1.37 1.34 1.28 1.26 1.26 1.26 1.28 1.30 1.29 1.31 1.38 1.43 1.43 1.46
0.41 0.44 0.50 0.57 0.66 0.72 0.73 0.77 0.82 0.86 0.88 0.89 0.92 0.95 0.98 1.01 1.05 1.11 1.17 1.22 1.26 1.27 1.34 1.39 1.38 1.29 1.29 1.37 1.41 1.44 1.46 1.49 1.51 1.50 1.49 1.45 1.44 1.41 1.38 1.34 1.31 1.31 1.32 1.29 1.28 1.32 1.38 1.37 1.36 1.35 1.33 1.31 1.30 1.29 1.27 1.30 1.30 1.28 1.28 1.32 1.38 1.40 1.45
0.41 0.45 0.46 0.48 0.56 0.62 0.68 0.70 0.71 0.79 0.85 0.88 0.91 0.96 1.00 1.03 1.07 1.12 1.18 1.22 1.29 1.34 1.38 1.42 1.44 1.38 1.29 1.33 1.39 1.42 1.43 1.45 1.47 1.48 1.48 1.47 1.47 1.50 1.49 1.44 1.42 1.41 1.39 1.39 1.36 1.36 1.37 1.42 1.40 1.39 1.37 1.35 1.34 1.32 1.31 1.31 1.31 1.29 1.29 1.30 1.36 1.37 1.39
0.34 0.39 0.44 0.49 0.53 0.55 0.57 0.61 0.66 0.72 0.77 0.79 0.86 0.94 0.99 1.05 1.09 1.11 1.15 1.19 1.27 1.34 1.38 1.44 1.45 1.44 1.35 1.31 1.37 1.41 1.42 1.44 1.48 1.50 1.48 1.47 1.50 1.51 1.51 1.52 1.50 1.50 1.51 1.52 1.48 1.46 1.46 1.45 1.44 1.45 1.44 1.41 1.38 1.36 1.37 1.35 1.32 1.30 1.29 1.29 1.33 1.36 1.36
0.28 0.33 0.42 0.44 0.46 0.51 0.54 0.57 0.60 0.64 0.70 0.73 0.77 0.82 0.87 0.94 1.02 1.08 1.12 1.17 1.24 1.30 1.35 1.42 1.44 1.44 1.41 1.33 1.32 1.37 1.43 1.50 1.52 1.54 1.52 1.48 1.48 1.49 1.50 1.52 1.54 1.55 1.56 1.58 1.58 1.58 1.58 1.58 1.56 1.52 1.48 1.46 1.43 1.40 1.38 1.36 1.34 1.32 1.28 1.26 1.30 1.34 1.32
0.30 0.29 0.31 0.39 0.48 0.47 0.48 0.50 0.54 0.57 0.63 0.66 0.68 0.73 0.80 0.86 0.94 1.01 1.04 1.10 1.19 1.24 1.31 1.39 1.41 1.42 1.41 1.36 1.32 1.39 1.48 1.52 1.54 1.53 1.53 1.49 1.44 1.45 1.50 1.53 1.55 1.56 1.56 1.58 1.61 1.63 1.65 1.64 1.65 1.61 1.54 1.48 1.45 1.43 1.39 1.36 1.37 1.33 1.29 1.28 1.27 1.28 1.32
0.30 0.32 0.38 0.41 0.41 0.38 0.42 0.47 0.48 0.53 0.56 0.61 0.68 0.72 0.78 0.82 0.89 0.96 1.01 1.06 1.11 1.18 1.26 1.32 1.36 1.41 1.41 1.37 1.38 1.44 1.49 1.52 1.53 1.54 1.50 1.47 1.46 1.48 1.49 1.51 1.55 1.56 1.56 1.58 1.62 1.64 1.66 1.67 1.65 1.63 1.62 1.56 1.50 1.44 1.40 1.35 1.34 1.33 1.29 1.26 1.24 1.28 1.32
0.33 0.32 0.36 0.36 0.39 0.34 0.36 0.40 0.44 0.46 0.49 0.55 0.62 0.67 0.73 0.77 0.83 0.90 0.95 1.03 1.08 1.15 1.23 1.27 1.31 1.33 1.36 1.39 1.42 1.44 1.45 1.49 1.53 1.53 1.50 1.50 1.48 1.48 1.50 1.52 1.53 1.54 1.55 1.57 1.59 1.65 1.69 1.66 1.66 1.66 1.66 1.65 1.59 1.51 1.45 1.38 1.31 1.28 1.26 1.25 1.24 1.26 1.29
0.32 0.32 0.31 0.34 0.40 0.36 0.36 0.37 0.42 0.47 0.47 0.53 0.59 0.62 0.65 0.74 0.80 0.85 0.93 1.00 1.10 1.20 1.21 1.21 1.26 1.33 1.37 1.42 1.43 1.41 1.45 1.50 1.50 1.50 1.49 1.47 1.47 1.51 1.53 1.52 1.51 1.52 1.54 1.55 1.62 1.68 1.67 1.67 1.69 1.67 1.69 1.67 1.61 1.55 1.51 1.45 1.38 1.27 1.25 1.24 1.24 1.25 1.27
0.35 0.34 0.34 0.37 0.45 0.43 0.44 0.45 0.44 0.47 0.52 0.53 0.56 0.64 0.70 0.72 0.75 0.83 0.96 1.04 1.12 1.14 1.15 1.17 1.23 1.31 1.35 1.36 1.38 1.41 1.45 1.47 1.46 1.45 1.46 1.50 1.52 1.54 1.54 1.53 1.50 1.53 1.59 1.62 1.66 1.65 1.66 1.69 1.70 1.71 1.67 1.66 1.66 1.61 1.56 1.50 1.44 1.34 1.26 1.24 1.23 1.23 1.25
0.35 0.37 0.40 0.40 0.41 0.43 0.49 0.51 0.51 0.52 0.52 0.54 0.57 0.61 0.68 0.70 0.74 0.86 0.98 1.02 1.05 1.10 1.13 1.17 1.18 1.22 1.28 1.28 1.29 1.34 1.39 1.40 1.42 1.43 1.47 1.51 1.53 1.53 1.53 1.53 1.54 1.56 1.59 1.61 1.62 1.61 1.63 1.65 1.64 1.69 1.66 1.67 1.70 1.66 1.58 1.56 1.51 1.39 1.29 1.24 1.22 1.21 1.23
0.38 0.41 0.46 0.53 0.56 0.59 0.59 0.57 0.57 0.56 0.57 0.62 0.62 0.61 0.64 0.69 0.77 0.80 0.88 1.03 1.06 1.11 1.14 1.16 1.18 1.18 1.23 1.25 1.26 1.28 1.33 1.36 1.37 1.39 1.43 1.46 1.48 1.47 1.47 1.50 1.51 1.51 1.58 1.61 1.64 1.67 1.68 1.69 1.70 1.64 1.67 1.73 1.72 1.65 1.56 1.58 1.55 1.44 1.33 1.25 1.22 1.21 1.22
0.51 0.62 0.60 0.59 0.61 0.63 0.68 0.68 0.65 0.66 0.67 0.64 0.62 0.63 0.64 0.69 0.75 0.77 0.84 0.95 1.03 1.11 1.15 1.16 1.16 1.16 1.18 1.21 1.24 1.27 1.32 1.35 1.35 1.35 1.38 1.42 1.43 1.42 1.44 1.46 1.50 1.56 1.63 1.60 1.60 1.62 1.64 1.64 1.65 1.66 1.70 1.70 1.69 1.66 1.60 1.59 1.57 1.48 1.37 1.28 1.23 1.23 1.22
0.59 0.61 0.63 0.65 0.68 0.69 0.73 0.77 0.77 0.77 0.73 0.69 0.69 0.66 0.69 0.71 0.74 0.76 0.78 0.87 0.99 1.11 1.15 1.13 1.11 1.14 1.17 1.18 1.22 1.27 1.33 1.36 1.36 1.35 1.37 1.39 1.38 1.39 1.43 1.50 1.57 1.60 1.66 1.61 1.61 1.61 1.65 1.70 1.70 1.70 1.70 1.68 1.68 1.68 1.65 1.63 1.62 1.54 1.45 1.36 1.28 1.25 1.23
0.68 0.68 0.70 0.71 0.70 0.70 0.74 0.78 0.79 0.78 0.80 0.79 0.71 0.71 0.72 0.73 0.74 0.75 0.77 0.84 0.92 1.03 1.12 1.10 1.09 1.12 1.15 1.21 1.30 1.35 1.38 1.39 1.39 1.38 1.37 1.37 1.39 1.44 1.46 1.50 1.54 1.61 1.68 1.66 1.66 1.66 1.70 1.73 1.70 1.70 1.72 1.71 1.70 1.73 1.71 1.69 1.69 1.63 1.51 1.43 1.36 1.31 1.29
0.70 0.71 0.74 0.77 0.80 0.81 0.80 0.85 0.84 0.84 0.80 0.77 0.75 0.76 0.74 0.73 0.72 0.72 0.77 0.85 0.90 0.93 1.03 1.08 1.12 1.20 1.26 1.30 1.32 1.36 1.38 1.39 1.37 1.38 1.37 1.37 1.43 1.49 1.50 1.56 1.59 1.62 1.64 1.66 1.66 1.64 1.66 1.67 1.66 1.65 1.65 1.68 1.71 1.71 1.71 1.70 1.72 1.71 1.63 1.51 1.43 1.37 1.34
0.77 0.78 0.77 0.80 0.81 0.87 0.85 0.88 0.89 0.84 0.83 0.88 0.87 0.86 0.83 0.78 0.74 0.74 0.81 0.89 0.90 0.89 1.03 1.19 1.25 1.25 1.26 1.30 1.32 1.34 1.36 1.38 1.37 1.36 1.40 1.45 1.47 1.50 1.52 1.55 1.55 1.58 1.60 1.59 1.63 1.62 1.61 1.59 1.60 1.63 1.65 1.67 1.69 1.70 1.69 1.68 1.66 1.71 1.69 1.63 1.52 1.43 1.39
0.77 0.81 0.84 0.88 0.92 0.91 0.89 0.92 0.93 0.91 0.89 0.89 0.91 0.86 0.86 0.83 0.77 0.80 0.86 0.92 0.93 0.99 1.13 1.24 1.28 1.29 1.29 1.29 1.28 1.31 1.35 1.35 1.38 1.43 1.45 1.50 1.54 1.52 1.51 1.58 1.61 1.60 1.59 1.60 1.61 1.59 1.56 1.57 1.59 1.60 1.59 1.64 1.68 1.67 1.64 1.66 1.65 1.69 1.66 1.66 1.64 1.53 1.42
0.76 0.77 0.79 0.84 0.89 0.93 0.92 0.93 0.91 0.92 0.91 0.93 0.97 0.99 0.93 0.87 0.82 0.85 0.93 0.96 1.03 1.12 1.16 1.24 1.32 1.36 1.35 1.33 1.31 1.32 1.38 1.42 1.43 1.45 1.49 1.50 1.52 1.50 1.48 1.54 1.55 1.55 1.56 1.56 1.55 1.53 1.51 1.50 1.55 1.54 1.53 1.58 1.61 1.62 1.63 1.65 1.66 1.67 1.63 1.63 1.67 1.68 1.61
0.86 0.87 0.87 0.90 0.92 0.95 0.95 0.94 0.95 0.95 0.98 0.97 0.99 1.05 1.10 0.97 0.90 0.93 0.95 1.02 1.23 1.24 1.26 1.30 1.35 1.38 1.35 1.34 1.32 1.34 1.37 1.41 1.45 1.49 1.52 1.53 1.54 1.53 1.49 1.50 1.51 1.52 1.53 1.52 1.50 1.48 1.47 1.48 1.48 1.52 1.49 1.47 1.50 1.58 1.61 1.66 1.69 1.69 1.65 1.61 1.63 1.68 1.74
0.88 0.87 0.88 0.88 0.90 0.95 0.97 0.94 0.94 0.97 0.98 1.00 1.00 1.04 1.10 1.17 1.09 1.06 1.05 1.16 1.27 1.25 1.22 1.26 1.30 1.31 1.30 1.31 1.33 1.33 1.36 1.40 1.45 1.48 1.50 1.52 1.53 1.48 1.47 1.47 1.50 1.47 1.51 1.51 1.47 1.47 1.44 1.45 1.48 1.47 1.47 1.46 1.43 1.49 1.57 1.65 1.68 1.69 1.67 1.61 1.61 1.66 1.71
0.94 0.94 0.94 0.92 0.92 0.95 0.96 0.97 0.97 0.97 0.96 0.99 1.03 1.03 1.07 1.11 1.12 1.04 1.09 1.20 1.24 1.29 1.29 1.27 1.23 1.24 1.25 1.29 1.32 1.35 1.39 1.39 1.42 1.46 1.48 1.50 1.52 1.51 1.50 1.48 1.48 1.45 1.46 1.46 1.45 1.44 1.45 1.45 1.47 1.46 1.48 1.46 1.45 1.48 1.52 1.60 1.64 1.66 1.69 1.63 1.61 1.63 1.66
0.96 0.95 0.93 0.90 0.93 0.96 0.95 0.95 0.93 0.92 0.95 0.96 1.02 1.05 1.07 1.10 1.12 1.14 1.17 1.19 1.24 1.27 1.31 1.30 1.26 1.23 1.25 1.27 1.32 1.36 1.39 1.37 1.38 1.43 1.48 1.50 1.51 1.53 1.55 1.54 1.51 1.47 1.44 1.45 1.42 1.39 1.41 1.43 1.43 1.44 1.44 1.42 1.42 1.47 1.55 1.58 1.61 1.65 1.68 1.60 1.58 1.58 1.61
0.97 0.96 0.97 0.98 0.98 0.97 0.95 0.92 0.91 0.92 0.93 0.95 1.00 1.05 1.06 1.08 1.10 1.16 1.20 1.23 1.26 1.29 1.31 1.28 1.27 1.25 1.24 1.26 1.29 1.32 1.35 1.35 1.37 1.39 1.44 1.50 1.51 1.49 1.50 1.56 1.57 1.52 1.48 1.47 1.49 1.46 1.44 1.47 1.49 1.48 1.48 1.48 1.51 1.55 1.58 1.56 1.59 1.60 1.61 1.51 1.46 1.48 1.54
1.02 1.00 1.00 0.98 0.99 0.99 0.95 0.95 0.92 0.94 0.95 0.97 1.02 1.03 1.02 1.03 1.08 1.12 1.17 1.24 1.29 1.33 1.29 1.27 1.29 1.32 1.31 1.32 1.30 1.27 1.29 1.29 1.30 1.29 1.31 1.38 1.45 1.49 1.52 1.50 1.52 1.53 1.55 1.64 1.68 1.62 1.54 1.52 1.55 1.60 1.64 1.65 1.64 1.63 1.59 1.56 1.52 1.51 1.60 1.67 1.60 1.60 1.60
1.04 1.04 1.02 1.04 1.04 1.04 1.02 1.01 1.00 0.97 0.98 1.01 1.06 1.04 1.01 0.99 1.01 1.05 1.08 1.11 1.16 1.21 1.19 1.20 1.22 1.23 1.25 1.29 1.28 1.27 1.22 1.22 1.22 1.24 1.26 1.29 1.34 1.37 1.42 1.53 1.54 1.55 1.53 1.53 1.62 1.62 1.63 1.59 1.52 1.57 1.64 1.66 1.72 1.76 1.66 1.61 1.66 1.77 1.81 1.80 1.74 1.68 1.67
1.05 1.05 1.05 1.06 1.05 1.05 1.04 1.03 1.03 1.02 1.02 1.05 1.08 1.07 1.05 1.03 1.04 1.05 1.07 1.09 1.11 1.12 1.12 1.13 1.10 1.12 1.11 1.14 1.12 1.12 1.13 1.12 1.19 1.22 1.24 1.25 1.28 1.31 1.31 1.34 1.44 1.49 1.48 1.47 1.50 1.55 1.57 1.58 1.55 1.54 1.54 1.55 1.54 1.66 1.73 1.67 1.66 1.72 1.77 1.76 1.77 1.73 1.70
1.13 1.13 1.12 1.12 1.09 1.07 1.06 1.07 1.07 1.06 1.06 1.10 1.11 1.10 1.09 1.06 1.08 1.08 1.09 1.11 1.10 1.10 1.08 1.07 1.05 1.02 1.03 1.04 1.05 1.04 1.06 1.07 1.08 1.10 1.14 1.19 1.23 1.25 1.25 1.25 1.24 1.33 1.48 1.48 1.43 1.42 1.42 1.46 1.51 1.55 1.58 1.58 1.57 1.52 1.51 1.58 1.61 1.64 1.67 1.67 1.66 1.65 1.68
Wind_Speed
21 21 21 20 21 22 24 24 24 25 26 26 26 26 25 25 26 26 26 27 28 28 28 28 28 27 27 27 26 25 25 24 23 23 22 21 21 20 20 19 19 18 18 17 17 16 16 16 16 16 15 15 14 14 14 13 13 13 12 11 11 10 9
22 21 21 21 21 22 23 24 25 25 26 26 27 27 26 26 26 26 26 27 28 28 28 28 28 27 27 27 26 26 26 25 24 23 23 22 22 21 21 20 19 19 19 18 18 17 17 17 17 17 16 16 16 15 15 15 14 14 13 13 12 12 11
22 22 21 21 22 22 22 23 24 26 27 27 27 27 27 27 26 26 26 27 28 28 28 28 28 28 27 27 27 26 26 25 25 24 24 23 23 22 21 21 20 20 19 19 19 18 18 18 18 18 18 17 17 16 16 16 15 15 15 14 14 13 12
23 22 22 22 22 22 21 22 23 25 26 27 28 28 28 28 27 26 26 26 27 28 28 28 28 28 27 27 26 26 26 26 25 25 24 24 23 22 22 21 21 21 20 20 20 19 19 19 18 19 19 18 18 18 17 17 17 17 16 16 15 15 14
23 23 22 22 21 21 21 22 23 24 25 27 28 28 28 28 28 27 27 26 26 27 28 28 28 28 27 27 27 26 26 26 26 25 25 24 23 22 23 23 22 22 22 21 21 20 20 20 19 19 19 19 19 19 19 18 18 18 18 17 17 16 15
24 23 22 22 21 21 22 22 22 23 25 26 27 28 28 29 29 28 28 27 27 27 27 28 28 27 28 28 27 27 27 27 26 26 25 25 24 23 23 24 23 23 22 22 21 21 21 21 20 20 20 20 20 20 20 20 19 19 19 19 18 18 17
24 24 23 23 22 22 22 22 22 22 23 24 26 27 28 29 29 29 29 28 28 28 27 27 27 27 28 28 28 28 27 27 27 26 26 25 25 24 24 24 24 24 23 23 22 22 22 22 21 21 21 20 21 21 21 21 21 21 20 20 20 19 18
23 23 24 24 23 22 22 22 22 22 22 22 24 26 27 28 29 29 29 29 29 29 28 28 28 27 27 27 27 28 27 27 27 27 26 26 25 25 25 25 25 24 24 24 23 23 23 23 22 22 22 22 21 21 22 22 22 22 21 21 21 20 20
21 21 21 22 23 22 22 22 21 21 21 22 23 25 26 28 28 29 30 30 29 30 30 29 28 28 28 27 27 27 27 27 27 26 27 26 26 26 26 25 25 24 24 24 24 24 24 23 23 23 23 23 22 22 22 22 23 23 23 22 22 22 21
20 20 20 21 22 22 22 22 22 22 22 23 23 24 25 27 28 28 30 30 31 31 31 30 30 29 29 28 28 28 27 27 26 26 27 26 26 26 26 25 24 24 24 24 24 24 24 24 24 24 23 24 24 23 23 23 24 24 24 24 23 23 22
19 19 19 21 22 22 23 24 24 23 23 23 24 24 25 26 27 28 29 30 31 31 32 31 31 30 30 29 29 28 28 27 27 27 27 26 26 26 26 25 24 24 24 24 24 24 24 24 24 24 24 24 24 24 24 24 25 25 25 25 25 24 24
18 18 19 20 21 22 23 24 24 23 23 23 24 24 24 26 27 27 28 29 30 30 31 31 31 31 30 30 29 29 29 28 28 27 27 27 26 26 26 25 25 24 24 23 23 24 23 23 23 23 24 24 25 25 25 25 25 26 26 26 26 26 25
16 18 19 19 21 21 22 23 23 23 23 23 24 24 24 25 27 27 27 28 29 30 30 31 32 32 32 31 30 30 30 29 29 28 28 27 26 26 25 25 25 25 24 23 23 23 23 23 23 23 24 24 24 25 25 25 26 26 27 27 27 27 26
15 17 19 19 20 21 22 23 23 24 24 24 24 24 24 25 26 27 27 27 28 29 30 30 31 32 33 32 31 31 30 30 29 29 28 28 27 26 26 25 25 25 24 23 23 23 23 23 22 23 23 24 24 25 25 25 25 26 27 28 28 28 28
13 15 17 18 18 19 20 21 22 23 24 24 25 25 24 25 26 26 26 27 27 28 30 30 31 32 33 33 32 31 31 30 30 29 29 29 28 28 27 26 26 25 24 23 23 22 22 22 22 22 23 24 25 25 25 25 25 26 27 28 28 29 28
13 14 16 17 17 17 18 19 20 21 23 24 25 25 25 25 26 26 26 26 26 27 29 29 30 32 33 33 32 31 31 30 30 30 30 30 29 29 28 28 27 26 25 25 24 23 23 22 22 22 23 24 25 25 26 26 26 27 28 29 29 29 29
15 16 16 16 16 16 17 18 19 20 21 22 23 25 25 25 25 26 26 25 25 26 28 29 30 31 32 32 32 31 31 31 30 30 30 30 30 29 29 29 28 27 27 26 25 24 24 24 24 24 24 24 25 26 26 27 27 28 28 29 29 29 29
17 17 17 16 16 16 17 18 18 19 20 20 21 23 24 25 25 26 26 26 25 25 26 28 29 31 32 32 32 31 31 31 30 31 31 30 30 30 29 29 29 28 28 27 26 26 26 26 26 25 25 25 26 26 26 27 28 28 29 29 30 30 29
19 19 18 17 16 16 17 17 18 19 19 19 20 22 23 23 24 25 25 25 24 24 25 26 28 30 31 31 31 31 31 31 30 30 31 31 30 30 30 30 29 29 29 29 28 28 27 27 27 27 27 27 27 27 27 27 28 29 29 29 30 31 31
21 20 19 18 17 17 18 17 18 19 19 19 20 21 21 22 22 23 24 25 25 24 24 25 26 28 29 30 30 30 30 30 30 30 30 30 30 30 30 30 30 30 30 30 30 30 29 29 28 28 29 29 28 28 28 28 28 29 29 30 31 32 32
22 21 21 20 19 19 19 19 19 19 19 19 20 20 21 21 21 22 22 24 25 25 24 24 25 26 27 28 29 29 29 29 29 29 30 30 30 30 31 31 31 31 31 31 31 31 31 30 30 29 30 29 28 28 29 29 29 29 29 30 31 32 33
22 22 21 20 20 20 20 20 21 20 20 20 20 20 21 21 21 21 21 22 24 25 25 25 25 26 26 27 27 27 28 28 28 28 29 29 29 30 31 31 31 31 31 31 32 32 32 32 31 31 30 29 30 30 30 29 30 31 30 31 32 32 33
22 22 21 21 21 21 21 21 21 22 22 21 21 21 21 21 22 22 21 21 23 25 25 25 25 26 26 26 26 27 27 27 28 28 28 29 29 30 30 31 31 31 31 32 32 32 32 32 32 32 30 30 31 32 31 31 31 32 32 32 32 33 33
22 22 22 22 21 21 21 21 21 22 22 22 22 22 22 22 22 23 23 22 22 24 26 26 26 27 27 27 27 27 27 28 28 28 28 28 29 29 29 30 30 30 30 31 32 32 32 32 32 32 31 31 31 31 31 31 31 32 33 34 34 34 34
22 22 22 22 21 21 20 20 21 21 22 23 23 23 23 23 23 23 24 24 23 24 26 27 26 27 27 27 27 27 27 28 28 28 28 29 29 29 29 29 30 30 30 31 31 32 32 31 31 31 32 31 31 31 31 32 32 32 33 34 35 35 35
22 22 22 21 21 21 20 20 20 20 20 22 23 23 23 23 23 24 24 24 24 24 26 28 27 27 27 27 27 27 27 27 28 28 28 29 29 29 29 29 30 30 31 31 32 32 32 32 31 32 32 31 31 32 32 32 32 32 33 35 36 37 37
22 22 21 21 21 21 20 20 19 19 19 20 22 22 23 22 22 23 24 24 24 24 25 27 27 27 27 27 27 27 27 28 28 28 29 29 29 30 30 30 31 31 31 32 32 32 32 32 32 32 32 32 32 32 32 32 32 33 34 35 36 38 39
23 22 22 21 21 20 20 19 19 19 19 20 21 21 22 23 22 22 23 23 24 24 24 25 26 27 27 27 27 28 28 28 28 29 29 30 30 30 31 31 32 32 32 32 32 33 34 33 33 33 33 33 34 33 33 33 33 33 33 35 37 38 40
23 23 22 21 21 20 20 19 19 19 19 19 20 20 21 22 22 22 22 22 22 23 23 23 25 26 27 27 27 28 28 28 29 29 30 30 30 31 31 31 32 32 33 32 32 32 33 34 34 34 34 34 34 34 34 34 34 34 34 34 36 38 40
23 23 22 21 21 21 20 20 19 19 19 19 19 20 20 21 21 21 21 21 21 22 22 23 24 26 27 27 27 28 29 29 29 30 30 31 31 31 31 32 32 32 33 33 32 32 33 33 33 34 35 35 35 35 35 35 34 35 34 35 36 38 40
23 23 23 22 22 21 21 20 19 19 19 18 19 19 19 20 20 20 20 21 22 22 23 24 24 25 25 26 26 27 28 28 29 29 30 31 31 32 32 32 33 33 33 34 33 33 33 34 34 34 35 36 35 35 35 35 35 35 35 36 37 38 39
23 23 23 22 22 22 21 21 20 19 19 18 18 19 19 20 20 20 21 22 22 23 24 24 24 24 25 25 25 26 27 27 28 28 29 30 31 31 32 33 33 34 34 34 33 33 33 34 35 35 36 36 36 36 36 36 36 36 36 36 38 39 40
23 22 22 22 22 22 22 21 20 20 19 18 18 18 19 20 20 21 21 22 23 23 24 24 25 25 25 25 26 26 27 27 28 28 28 29 30 31 32 32 33 33 34 34 34 34 34 34 35 36 37 37 37 37 37 38 38 38 38 38 39 40 41
23 22 22 21 22 22 22 21 21 20 20 19 19 18 19 20 20 21 21 22 22 22 23 23 24 24 24 25 25 26 27 27 28 28 28 28 29 30 31 32 32 33 34 34 34 35 35 36 36 37 38 39 39 39 40 40 40 40 40 40 41 42 43
23 22 22 21 22 22 22 22 21 21 20 20 20 19 19 19 20 21 21 21 22 22 22 22 23 23 24 24 25 25 26 27 27 28 28 29 30 31 31 32 33 33 34 35 35 36 37 38 39 39 40 41 41 42 42 43 43 44 43 43 43 44 44
24 23 23 22 22 22 22 22 22 21 21 21 21 20 20 19 20 20 21 21 22 22 22 23 23 23 24 24 25 25 26 26 27 27 28 29 30 31 32 33 34 35 36 36 37 38 39 40 41 41 42 42 43 44 44 45 45 46 46 47 47 47 48
24 24 24 23 23 22 22 22 22 21 21 21 21 21 20 20 20 20 21 21 21 22 22 23 23 24 24 24 25 25 26 26 27 27 28 29 30 31 33 34 34 35 36 37 38 40 41 42 43 44 45 46 46 47 47 48 48 48 49 50 50 51 51
24 24 24 24 24 23 23 22 22 22 21 21 22 21 21 21 20 20 20 21 21 22 22 22 23 23 24 24 24 25 25 26 26 27 28 29 30 32 33 34 35 36 37 38 39 41 43 44 45 47 48 49 50 50 51 51 51 51 51 52 53 53 54
Wind_Direction
211 211 209 209 210 211 211 210 208 208 207 207 208 208 207 207 207 208 209 210 210 210 210 210 212 212 214 214 215 216 216 216 218 219 221 223 224 225 226 227 228 230 231 233 234 233 233 233 233 233 233 234 235 236 235 233 231 229 228 229 230 232 235
213 212 210 209 210 211 211 211 210 209 209 209 210 210 209 208 207 208 209 210 210 210 210 211 212 213 214 215 216 217 217 218 219 220 222 224 225 226 228 229 230 231 232 234 236 236 235 234 234 234 234 234 235 237 236 234 233 231 229 228 229 232 235
213 212 211 210 210 210 210 210 210 210 210 211 211 211 210 209 208 208 209 209 210 210 211 212 213 214 215 216 216 217 218 219 220 221 223 225 225 226 228 230 231 233 233 234 236 237 237 236 235 235 235 235 235 236 236 235 234 233 231 229 230 232 234
213 213 212 210 209 209 209 209 210 211 211 212 213 212 211 211 210 209 209 209 209 210 211 212 213 215 216 217 217 218 218 220 221 222 224 226 226 227 229 231 232 234 235 235 236 237 239 238 237 236 236 236 236 236 236 236 235 234 232 230 231 233 235
213 213 213 211 209 209 209 209 210 211 212 213 213 213 213 212 212 211 211 210 210 211 212 213 214 216 217 218 219 220 220 221 223 224 226 227 227 228 230 231 233 235 236 237 237 237 238 239 238 237 237 237 237 237 237 236 237 236 233 231 232 233 235
212 212 212 211 209 208 208 209 209 211 213 213 212 213 214 213 213 213 213 213 213 213 214 215 216 217 218 219 220 222 222 223 224 225 227 229 229 230 231 232 234 236 237 238 239 238 238 239 239 239 238 238 238 238 237 237 237 237 235 232 232 234 235
212 211 211 211 209 209 208 209 209 210 212 213 213 213 213 214 215 215 215 215 215 216 216 217 217 218 219 220 221 222 223 224 225 226 228 230 230 232 233 234 235 236 238 239 240 240 240 240 240 239 239 239 238 238 238 237 237 237 236 233 232 234 235
213 212 212 212 212 211 210 209 208 208 210 212 214 214 214 214 215 216 217 217 218 218 219 220 220 220 221 221 222 223 223 225 226 227 229 231 232 234 235 236 237 237 238 240 241 241 241 241 241 240 240 240 239 238 238 238 237 237 236 234 233 233 235
213 212 213 214 215 214 212 209 208 210 213 215 216 216 215 215 216 217 219 220 220 221 222 223 222 222 223 223 223 223 224 225 228 229 230 232 234 235 236 237 238 238 239 240 241 242 242 242 242 241 241 241 241 240 239 239 237 237 237 235 234 233 234
213 211 212 214 215 213 212 210 211 215 218 218 218 217 217 217 217 219 220 221 223 224 224 224 224 224 224 225 224 224 225 226 228 230 231 232 234 234 235 237 238 238 239 240 241 243 243 243 243 242 241 241 241 241 241 240 238 238 237 237 234 233 234
214 215 216 216 216 213 211 212 215 219 221 220 219 219 220 220 219 220 221 222 224 225 225 225 224 224 225 226 227 226 227 228 229 230 231 232 233 233 234 235 237 238 238 239 241 243 244 244 243 243 242 241 242 242 242 241 240 238 238 237 235 234 234
214 217 219 218 216 215 215 216 219 221 222 221 221 221 222 222 221 222 223 223 224 224 224 224 224 224 225 227 228 228 228 229 230 231 231 232 232 232 233 234 236 237 238 239 240 241 243 243 243 242 242 242 242 242 242 242 241 240 238 237 236 235 235
215 217 218 218 217 217 218 220 221 221 223 224 224 223 223 223 223 223 224 225 225 224 223 223 223 223 224 226 227 228 228 229 230 231 232 232 232 233 233 234 235 236 238 239 240 241 243 243 243 242 242 242 242 243 243 243 242 241 239 238 237 236 236
220 218 216 216 218 219 221 223 224 224 225 227 227 225 225 225 224 225 227 227 226 224 224 223 223 223 224 225 227 228 229 230 231 231 232 232 233 233 235 235 235 236 237 239 240 241 243 244 244 244 243 242 242 243 243 243 242 241 240 239 239 238 238
222 221 215 215 217 220 222 225 226 228 229 230 229 227 227 227 226 226 228 229 227 225 224 223 223 223 224 225 227 228 229 230 230 231 231 232 233 234 235 236 236 237 238 238 240 242 243 245 245 245 244 243 243 243 243 244 243 242 241 240 240 240 240
227 226 223 219 218 221 224 226 227 229 230 231 231 229 228 229 228 227 228 228 228 227 225 223 223 224 225 226 228 228 229 229 230 231 231 232 233 234 235 236 238 239 239 240 242 243 244 245 245 245 245 244 244 244 244 245 245 243 241 240 240 241 241
232 230 230 227 224 225 228 229 229 229 229 231 231 230 230 231 230 229 228 228 228 228 226 223 223 225 226 227 227 228 228 229 231 231 231 232 234 235 236 237 238 239 240 241 243 244 246 246 246 247 247 246 246 245 245 246 246 244 242 241 240 240 241
234 232 235 234 230 230 233 233 233 232 231 232 231 230 231 232 231 230 229 229 229 228 226 224 224 225 226 226 226 227 228 230 231 231 232 233 234 236 236 237 238 240 241 242 243 245 247 248 248 249 249 249 248 247 246 246 246 244 243 242 240 240 241
237 237 239 238 234 234 236 236 236 234 234 234 231 230 231 232 231 231 231 229 228 227 227 226 225 226 226 226 225 226 228 229 230 231 232 234 235 236 237 237 238 240 242 243 244 246 247 249 250 250 250 251 251 250 249 248 247 245 244 243 242 240 241
240 240 241 240 238 239 239 239 239 237 236 235 232 230 230 230 231 232 231 229 227 227 228 227 225 225 226 226 226 227 228 229 230 232 233 233 234 236 237 238 239 241 243 244 246 247 248 249 250 250 251 252 252 252 252 251 248 246 245 245 243 242 242
241 241 240 240 240 241 241 242 242 241 238 236 234 231 229 229 230 229 229 229 227 227 227 226 225 225 226 226 226 227 228 229 230 231 232 233 235 236 238 239 240 242 244 245 247 248 249 250 250 251 251 252 252 253 253 252 249 247 246 246 245 244 243
243 241 240 239 240 242 243 244 243 242 240 238 236 233 231 230 229 227 228 228 227 226 226 225 224 225 225 226 227 227 228 229 230 231 233 234 235 237 238 240 242 243 245 246 248 249 250 251 252 252 252 251 252 253 253 253 250 248 247 247 246 245 245
242 240 240 241 242 243 243 244 244 243 242 240 237 235 232 231 229 227 227 227 226 226 226 226 226 225 226 227 228 228 228 229 231 232 233 235 236 238 240 241 243 244 245 247 248 249 251 252 253 253 252 252 252 253 253 253 252 249 248 248 247 246 246
239 239 240 241 243 243 243 244 245 245 243 241 239 237 234 231 230 228 228 227 226 226 226 228 229 228 228 229 230 230 230 231 232 233 235 236 237 239 240 242 243 245 246 247 248 250 251 252 252 253 253 253 253 253 254 254 254 251 250 249 248 247 247
237 238 240 241 242 242 244 245 246 246 243 240 239 237 235 233 232 230 229 229 227 227 227 230 231 231 230 231 231 232 233 234 235 236 236 238 239 241 242 243 244 246 247 248 250 251 251 250 251 252 254 255 256 255 255 255 255 253 251 250 248 247 248
237 238 240 240 241 242 243 244 244 244 242 239 238 237 235 234 233 232 231 230 229 229 229 231 232 232 232 232 233 234 235 236 237 238 239 240 241 243 244 245 246 248 249 251 251 251 251 251 252 253 255 256 258 257 256 256 256 255 253 251 249 248 247
238 238 239 240 241 241 241 241 242 243 241 240 239 238 235 234 233 233 233 232 232 231 232 231 232 233 233 233 234 235 237 239 240 240 241 242 243 245 246 247 248 249 251 252 252 252 252 253 254 255 256 256 257 258 257 257 257 256 254 252 250 249 248
239 238 238 239 240 240 239 240 241 242 242 241 240 238 236 234 234 234 235 235 234 234 234 233 232 233 234 234 235 237 239 241 242 243 244 244 245 247 248 249 250 251 252 253 253 253 253 254 254 255 256 257 258 258 258 258 258 258 256 254 251 250 248
240 239 239 239 240 240 239 240 242 243 242 241 239 238 237 235 234 235 237 237 236 235 235 234 233 234 236 237 239 240 242 244 245 246 246 247 247 248 249 250 251 252 252 253 253 254 254 254 254 255 256 257 258 259 260 260 259 258 257 255 253 251 249
240 240 240 240 241 240 239 240 242 244 244 241 239 239 237 235 234 235 237 239 238 237 235 235 236 237 239 242 243 244 245 246 247 248 248 249 249 249 250 252 252 252 252 253 254 255 255 255 255 256 257 258 260 260 260 260 260 259 257 255 253 253 252
240 241 241 241 241 240 240 241 242 245 246 244 241 239 238 236 235 235 237 239 239 239 237 237 238 239 241 243 244 245 246 247 248 249 250 250 251 251 252 253 253 252 253 254 254 255 256 256 257 258 259 259 260 261 261 261 261 260 258 256 254 254 254
240 240 241 241 241 241 241 241 242 244 246 246 244 241 239 238 237 237 238 239 239 239 240 240 240 241 242 244 245 245 246 247 249 250 251 252 253 253 253 253 253 253 254 254 255 256 258 258 258 260 261 260 260 261 261 261 261 261 260 259 257 256 256
239 240 240 241 240 240 241 241 241 242 243 245 245 243 240 239 239 239 239 239 239 240 241 241 242 243 245 246 247 248 249 250 251 251 252 253 253 253 253 253 254 254 255 256 256 257 258 259 260 261 262 262 262 262 262 262 262 262 262 261 260 259 257
238 238 239 239 239 239 239 240 240 241 241 243 244 244 243 241 241 241 241 241 241 242 242 243 244 244 245 246 247 249 250 251 252 253 253 253 253 253 254 254 255 256 257 258 258 258 259 260 262 263 263 264 264 263 263 263 263 263 263 263 262 260 258
237 237 237 237 237 238 238 238 239 240 240 241 242 243 243 243 243 243 243 243 243 243 244 244 244 245 246 247 249 250 251 253 254 254 254 255 255 255 256 256 257 258 259 260 260 260 261 263 264 265 265 265 265 264 264 265 265 265 265 264 263 261 259
235 236 236 235 236 236 236 237 238 239 240 241 241 242 241 242 243 244 244 245 245 245 245 246 246 247 248 249 251 252 253 255 256 256 256 257 258 258 259 259 259 260 261 262 262 263 263 264 265 266 267 267 267 266 266 267 268 267 266 265 264 263 261
234 235 235 235 235 235 236 237 237 238 239 240 241 241 241 242 244 245 245 246 246 246 246 247 248 249 251 252 254 255 256 257 259 260 260 260 261 262 262 262 262 262 263 264 265 266 266 266 267 267 268 269 269 269 268 268 269 268 266 265 264 264 263
234 235 235 235 235 235 236 237 237 238 239 240 240 241 241 243 245 246 247 248 248 247 248 248 249 251 253 255 256 258 259 260 261 262 262 263 264 264 264 265 265 266 266 267 267 268 268 268 269 269 269 269 270 270 270 270 270 270 268 266 265 264 263